Weather History for New Orleans NAS, LA

Change the Weather History Date:

Wednesday, May 9, 2012

  Actual Average Record
Temperature  
Mean Temperature 76 °F -  
Max Temperature 84 °F 82 °F 88 °F (2011)
Min Temperature 71 °F 64 °F 57 °F (2007)
Cooling Degree Days 12    
Growing Degree Days 26 (Base 50)    
Moisture  
Dew Point 66 °F    
Average Humidity 68    
Maximum Humidity 87    
Minimum Humidity 54    
Precipitation  
Precipitation 0.00 in - - ()
Sea Level Pressure  
Sea Level Pressure 29.89 in    
Wind  
Wind Speed 3 mph (North)    
Max Wind Speed 10 mph    
Max Gust Speed 16 mph    
Visibility 10 miles    
Events      
Averages and records for this station are not official NWS values.
T = Trace of Precipitation, MM = Missing Value Source: NWS Daily Summary

Daily Weather History Graph

Daily Weather History Graph

Search for Another Location

Airport:

Trip Planner

Search our weather history database for the weather conditions in past years. The results will help you decide how hot, cold, wet, or windy it might be!

Date:

Astronomy

May. 09, 2012 Rise Set
Actual Time 6:10 AM CDT 7:42 PM CDT
Civil Twilight 5:44 AM CDT 8:08 PM CDT
Nautical Twilight 5:14 AM CDT 8:39 PM CDT
Astronomical Twilight 4:41 AM CDT 9:11 PM CDT
Moon 11:40 PM CDT (5/9) 9:30 AM CDT (5/9)
Length of Visible Light 14h 23m
Length of Day
13h 32m
Waning Gibbous, 82% of the Moon is Illuminated
May 9
Waning Gibbous
May 12
Last Quarter
May 20
New
May 28
First Quarter
Jun 4
Full

Hourly Weather History & Observations

Time (CDT) Temp. Heat Index Dew Point Humidity Pressure Visibility Wind Dir Wind Speed Gust Speed Precip Events Conditions
12:55 AM 73.9 °F - 68.0 °F 82% 29.88 in 10.0 mi Calm Calm - N/A   Clear
1:55 AM 73.0 °F - 66.9 °F 81% 29.87 in 10.0 mi Calm Calm - N/A   Clear
2:55 AM 71.1 °F - 66.9 °F 87% 29.86 in 9.0 mi Calm Calm - N/A   Clear
3:55 AM 72.0 °F - 68.0 °F 87% 29.86 in 8.0 mi Calm Calm - N/A   Scattered Clouds
4:55 AM 73.9 °F - 68.0 °F 82% 29.87 in 10.0 mi North 3.5 mph - N/A   Clear
5:55 AM 73.9 °F - 68.0 °F 82% 29.87 in 10.0 mi Calm Calm - N/A   Clear
6:55 AM 72.0 °F - 68.0 °F 87% 29.88 in 6.0 mi Calm Calm - N/A   Mostly Cloudy
7:55 AM 75.9 °F - 70.0 °F 82% 29.88 in 7.0 mi Calm Calm - N/A   Mostly Cloudy
8:55 AM 78.1 °F - 68.0 °F 71% 29.88 in 10.0 mi Variable 3.5 mph - N/A   Mostly Cloudy
9:55 AM 81.0 °F 83.8 °F 68.0 °F 65% 29.90 in 10.0 mi Variable 4.6 mph - N/A   Mostly Cloudy
10:24 AM 80.6 °F 83.2 °F 68.0 °F 65% 29.91 in 10.0 mi WNW 6.9 mph - N/A   Mostly Cloudy
10:55 AM 81.0 °F 83.3 °F 66.9 °F 62% 29.92 in 10.0 mi NNW 6.9 mph - N/A   Mostly Cloudy
11:55 AM 81.0 °F 83.3 °F 66.9 °F 62% 29.92 in 10.0 mi North 10.4 mph 16.1 mph N/A   Mostly Cloudy
12:55 PM 82.0 °F 84.1 °F 66.0 °F 58% 29.90 in 10.0 mi North 9.2 mph - N/A   Mostly Cloudy
1:55 PM 82.0 °F 84.1 °F 66.0 °F 58% 29.89 in 10.0 mi North 9.2 mph - N/A   Mostly Cloudy
2:55 PM 82.0 °F 83.8 °F 64.9 °F 56% 29.88 in 10.0 mi Variable 6.9 mph - N/A   Scattered Clouds
3:55 PM 82.9 °F 84.6 °F 64.9 °F 54% 29.85 in 10.0 mi North 5.8 mph - N/A   Scattered Clouds
4:55 PM 81.0 °F 82.5 °F 64.0 °F 56% 29.85 in 10.0 mi North 5.8 mph - N/A   Scattered Clouds
5:55 PM 80.1 °F 81.5 °F 63.0 °F 56% 29.86 in 10.0 mi North 8.1 mph - N/A   Scattered Clouds
6:55 PM 80.1 °F 81.7 °F 64.0 °F 58% 29.86 in 10.0 mi North 4.6 mph - N/A   Scattered Clouds
7:55 PM 78.1 °F - 64.0 °F 62% 29.88 in 10.0 mi NNE 4.6 mph - N/A   Scattered Clouds
8:55 PM 77.0 °F - 63.0 °F 62% 29.90 in 10.0 mi NNE 8.1 mph - N/A   Partly Cloudy
9:55 PM 75.0 °F - 62.1 °F 64% 29.92 in 10.0 mi NNE 5.8 mph - N/A   Scattered Clouds
10:55 PM 73.9 °F - 61.0 °F 64% 29.93 in 10.0 mi NNE 5.8 mph - N/A   Partly Cloudy
11:55 PM 73.0 °F - 60.1 °F 64% 29.93 in 10.0 mi NNE 6.9 mph - N/A   Clear